Reflectivity
-20 -20 -20 -20 -20 -20 -20 -20 -17 -18 -20 -20 -20 -20 -16 -20 -20 -20 -20 -20 -20 -20 -20 -8 -0 5 11 16 17 13 7 -7 -17 -6 -10 -12 3 10 6 -6 -11 2 -0 6
-20 -20 -20 -20 -20 -20 -20 -20 -20 -20 -20 -20 -20 -20 -20 -20 -20 -20 -20 -20 -20 -20 -20 -20 -20 2 10 5 14 11 11 15 14 2 -1 6 9 9 1 -2 -18 -20 -20 -11
-20 -20 -20 -20 -20 -20 -20 -20 -20 -20 -20 -20 -20 -20 -20 -20 -20 -20 -20 -20 -20 -20 -20 -20 -20 -20 -17 -3 5 4 8 17 15 12 14 12 6 -8 -17 -20 -20 -20 -20 -19
-20 -20 -20 -20 -20 -20 -20 -20 -20 -20 -20 -20 -20 -20 -20 -20 -20 -20 -20 -20 -20 -20 -20 -20 -20 -20 -20 -20 -20 -20 -20 -1 -1 10 1 7 5 4 18 18 13 -1 -13 -10
-20 -20 -20 -20 -20 -20 -20 -20 -20 -20 -20 -20 -20 -20 -17 -20 -20 -20 -20 -20 -20 -20 -20 -20 -20 -20 -20 -20 -20 -20 -20 -20 -20 -20 -15 -5 6 18 9 1 6 2 11 17
-4 -20 -20 -20 -20 -20 -20 -20 -20 -20 -20 -20 -20 -20 -20 -20 -20 -20 -20 -20 -20 -20 -20 -20 -20 -20 -20 -20 -20 -20 -20 -20 -20 -20 -20 -20 -13 7 -8 -20 -19 5 -2 -18
0 -20 -20 -20 -20 -20 -20 -20 -20 -20 -20 -20 -20 -20 -20 -20 -20 -20 -20 -20 -20 -20 -20 -20 -20 -20 -20 -20 -20 -20 -20 -20 -20 -20 -20 -20 -20 -20 -20 -20 -20 -20 -20 -14
-9 0 -20 -20 -20 -20 -20 -20 -20 -20 -20 -20 -20 -20 -20 -20 -20 -20 -20 -20 -20 -20 -1 -20 -20 -20 -13 -20 -20 -20 -20 -20 -20 -20 -20 -20 -20 -20 -14 -5 2 -12 -17 -11
-20 -20 -20 -20 -20 -20 -20 -20 -20 -20 -20 -20 -20 -20 -20 -20 -20 -20 -20 -20 -20 -20 -20 -20 -20 -20 -20 -20 -20 -20 -20 -20 -20 -20 -20 -20 -5 -0 -18 -20 -20 -2 -1 -7
-20 -20 -20 -20 -20 -20 -20 -20 -20 -20 -20 -20 -20 -20 -20 -20 -20 -20 -20 -20 -20 -20 -20 -20 -20 -20 -20 -20 -20 -20 -20 -20 -20 -20 -18 -20 -20 -20 5 1 6 6 6 4
-20 -20 -20 -20 -20 -20 -20 -20 -20 -20 -20 -20 -20 -20 -20 -20 -20 -20 -20 -20 -20 -20 -20 -20 -20 -20 -20 -20 -20 -20 -20 -20 -20 -2 -12 -9 1 -5 -10 -8 6 4 6 7
-20 -20 -20 -20 -20 -20 -20 -20 -20 -20 -20 -20 -20 -20 -20 -20 -20 -20 -20 -20 -20 -20 -20 -20 -20 -20 -20 -20 -20 -20 -20 -16 -3 -3 2 -4 -20 -14 6 -18 -20 -20 -20 -20
-20 -20 -20 -20 -20 -20 -20 -20 -20 -20 -20 -20 -20 -20 -20 -20 -20 -20 -20 -20 -20 -20 -7 -1 2 -3 0 -1 -20 -6 -20 -20 1 -20 -1 -1 -19 3 -10 -20 -20 -20 -20 -20
-20 -20 -20 -20 -20 -20 -20 -20 -20 -20 -20 -20 -20 -20 -20 -20 -20 -20 -20 -20 -18 -20 -20 -20 -20 2 6 -20 -14 -5 -20 -14 -2 4 3 5 4 7 6 0 3 -3 -19 -20
-20 -20 -20 -20 -20 -20 -20 -20 -20 -20 -20 -20 -20 -20 -20 -20 -20 -20 -20 -20 -20 -20 -20 -20 -20 2 6 -20 -20 -20 -13 -2 3 4 2 5 4 1 4 4 6 8 6 -15
-20 -20 -20 -20 -20 -20 -20 -20 -20 -20 -20 -20 -20 -20 -20 -20 -20 -20 -20 -20 -20 -20 -19 -17 1 5 -9 -20 -8 -20 4 -15 -17 7 -19 -8 -16 -9 -14 2 9 7 5 7
-20 -20 -20 -20 -20 -20 -20 -20 -20 -20 -20 -20 -20 -20 -20 -20 -20 -20 -20 -20 -20 -20 -10 -20 -16 -9 -20 -20 2 9 6 5 -2 0 -19 -6 6 -16 -18 -18 6 12 10 7
-20 -20 -20 -20 -20 -20 -20 -20 -20 -20 -20 -20 -20 -20 -20 -20 -20 -20 -20 -20 -20 -20 -20 -20 -20 -7 2 -20 5 8 6 4 6 3 -20 -20 6 5 -14 5 12 11 10 9
-20 -20 -20 -20 -20 -20 -20 -20 -20 -20 -20 -20 -20 -20 -20 -20 -20 -20 -12 -5 -20 -14 -20 -20 1 -16 6 4 -10 10 7 7 8 4 1 6 0 7 6 11 13 12 10 7
-20 -20 -20 -20 -20 -20 -20 -20 -20 -20 -20 -20 -20 -20 -20 -20 -20 -20 -20 -20 -20 -6 11 -3 -12 -9 4 8 -15 1 9 11 7 7 2 2 5 3 8 3 7 8 5 5
-20 -20 -20 -20 -20 -20 -20 -20 -20 -20 -20 -20 -20 -20 -20 -20 -20 -15 -20 -20 -3 0 -1 -5 -14 -3 13 -1 -20 7 7 9 7 9 6 4 5 4 8 8 8 9 7 6
-20 -20 -20 -20 -20 -20 -20 -20 -20 -20 -20 -20 -20 -20 -20 -20 -20 -20 1 -9 2 -2 -4 12 -13 2 3 -16 3 10 10 8 8 6 7 7 8 8 9 8 9 8 8 4
-20 -20 -20 -20 -20 -20 -20 -20 -20 -20 -20 -20 -20 -20 -20 -20 -20 -20 -20 -20 1 4 -4 9 -5 8 -8 -3 12 10 8 10 7 5 8 5 7 7 9 9 8 9 8 9
-20 -20 -20 -20 -20 -20 -20 -20 -20 -20 -20 -20 -20 -20 -20 -20 -20 -20 -20 -20 -20 -19 -7 -12 3 7 -0 11 10 13 10 10 6 3 6 3 5 8 9 9 8 7 6 9
-20 -20 -20 -20 -20 -20 -20 -20 -20 -20 -20 -20 -20 -20 -20 -20 -20 -20 -20 -20 -20 -19 -16 10 -9 2 -4 -1 -4 9 9 10 10 7 8 5 4 6 8 5 8 8 5 8
-20 -20 -20 -20 -20 -20 -20 -20 -20 -20 -20 -20 -20 -20 -20 -20 -20 -20 -20 -20 -20 -20 -6 7 -16 -6 -8 6 15 -3 12 8 5 6 6 6 4 5 5 6 5 2 6 10
-20 -20 -20 -20 -20 -20 -20 -20 -20 -20 -20 -20 -20 -20 -20 -20 -20 -20 -20 -10 -6 5 5 9 -5 6 4 9 7 7 11 9 -11 -14 6 4 4 5 6 3 2 -0 5 13
Wind_Speed
5 5 6 8 7 7 9 7 5 4 2 2 3 8 9 11 12 13 14 15 15 15 12 12 11 9 9 14 10 8 9 10 9 10 11 10 10 10 10 11 11 11 9 9
4 5 6 9 10 9 6 5 3 3 5 4 4 6 9 11 12 13 13 14 15 14 14 14 14 13 13 11 14 13 11 9 11 11 10 11 12 11 11 10 11 12 12 11
3 3 6 9 17 13 9 7 5 7 8 4 6 8 10 9 11 13 13 12 13 14 14 13 14 14 15 16 14 13 13 11 11 12 14 12 11 12 13 13 11 10 10 11
2 4 5 1 4 12 9 8 7 5 3 3 6 9 10 4 10 12 13 14 14 13 14 14 14 13 13 14 15 13 12 12 13 13 13 7 11 12 10 12 11 10 11 10
4 8 10 12 11 11 10 10 10 8 4 4 6 10 9 7 9 12 14 14 14 13 14 13 13 13 14 14 14 13 14 14 14 14 13 13 7 3 6 11 10 9 11 12
4 5 5 5 6 12 5 12 10 9 4 4 6 7 8 13 12 13 13 13 14 15 14 13 14 15 14 13 15 15 15 15 15 15 16 15 14 12 11 12 12 11 13 13
9 6 9 1 10 10 7 2 10 8 3 4 6 7 9 11 12 12 13 14 15 14 13 14 13 12 13 12 11 14 15 15 14 13 14 15 15 13 13 14 13 13 14 14
10 8 10 12 15 11 5 8 8 5 3 3 4 5 7 9 11 12 13 13 13 12 10 9 10 11 12 13 12 12 13 15 16 15 12 12 15 14 13 12 12 11 12 13
11 7 3 14 7 10 6 8 6 2 2 3 3 5 7 8 9 10 11 10 10 10 10 10 10 10 12 12 12 14 13 14 14 14 12 12 13 11 11 12 11 10 9 10
9 12 8 11 15 12 8 7 5 4 5 4 3 4 6 7 8 9 10 10 11 11 12 12 11 12 12 13 13 14 15 15 13 10 10 11 9 9 9 8 9 9 10 10
12 9 7 13 15 12 12 8 6 6 5 3 2 3 4 7 8 8 9 9 11 12 12 14 14 14 13 14 14 14 15 15 14 10 11 10 9 9 10 11 11 11 11 11
8 14 13 10 16 14 15 12 10 10 9 6 3 2 3 5 6 8 10 10 10 12 13 14 14 15 15 14 14 15 15 11 9 9 10 9 9 10 12 17 19 20 22 19
12 5 7 6 6 11 15 13 12 9 6 6 5 2 2 5 6 7 8 9 11 13 14 14 14 13 13 13 13 15 15 15 10 10 9 10 10 11 12 10 14 17 21 23
14 10 11 10 9 9 10 12 9 8 7 5 3 3 2 4 5 6 7 9 10 12 13 14 14 12 12 12 15 16 15 12 10 10 10 11 11 12 11 12 13 13 12 15
13 13 11 11 11 15 12 12 12 10 9 7 5 4 4 6 7 7 7 7 9 10 12 12 14 13 11 12 15 14 12 10 11 11 10 11 11 12 11 12 13 13 12 12
13 14 14 13 15 13 14 14 13 11 8 6 5 5 5 6 8 8 9 10 10 9 13 12 14 11 9 13 15 12 11 12 11 10 10 11 10 11 11 12 12 12 11 12
17 17 17 15 15 16 15 13 11 9 7 6 5 5 6 8 9 9 10 10 11 11 12 12 11 12 10 13 14 9 9 10 12 9 9 10 10 11 10 11 12 11 12 11
15 15 16 15 15 14 14 12 8 7 6 2 3 4 4 6 9 9 10 10 10 10 10 9 8 9 10 12 12 10 10 10 10 9 10 10 10 11 11 12 12 12 12 11
14 13 15 16 16 14 12 11 9 6 4 2 2 4 5 7 8 9 9 8 10 11 6 6 7 9 12 9 8 9 11 11 10 10 10 13 11 11 11 12 11 11 11 11
15 12 12 14 14 13 11 9 8 6 3 1 0 3 4 6 6 7 7 8 10 9 10 7 9 10 11 8 7 11 10 11 11 10 9 10 10 11 11 12 12 11 10 10
15 13 12 12 11 11 10 6 6 5 3 2 1 4 5 8 7 6 8 8 8 10 6 8 8 9 8 9 11 10 9 10 10 10 10 10 11 11 11 11 10 10 10 10
15 12 13 12 11 9 7 7 6 3 2 1 2 3 5 8 5 6 2 8 7 5 5 8 7 7 8 10 11 9 9 10 9 9 9 10 10 11 10 10 10 10 9 9
15 14 15 11 10 10 9 6 4 3 2 2 2 3 5 6 7 8 8 9 9 10 9 10 9 10 10 9 9 9 10 10 9 9 9 10 10 10 10 10 10 9 9 9
16 15 14 12 11 10 8 7 5 4 3 6 4 5 5 5 6 6 7 8 10 9 9 9 9 11 10 8 8 9 8 9 8 8 10 12 9 9 9 9 9 8 8 9
15 13 12 11 9 6 6 6 5 5 2 2 3 4 6 5 6 8 9 9 8 9 8 9 12 10 7 6 9 8 8 8 7 8 9 9 9 9 8 8 8 8 8 8
13 9 7 7 5 5 4 3 1 1 3 3 4 4 5 7 7 8 9 11 12 12 9 7 7 7 7 7 8 8 8 8 8 8 9 9 9 8 8 9 8 8 8 7
9 6 7 6 5 4 3 3 1 2 3 4 6 6 7 8 8 9 10 9 10 10 9 8 7 8 8 7 7 7 7 7 7 8 8 8 8 7 7 7 7 7 6 6
Wind_Direction
287 288 259 261 264 253 223 234 276 124 271 87 354 333 345 346 349 349 360 357 359 357 360 4 10 15 1 351 353 359 353 354 355 354 350 0 355 356 355 359 351 350 354 348
295 239 250 255 251 245 233 223 163 235 226 104 301 320 340 338 351 353 354 348 350 350 354 354 351 351 349 348 336 336 338 348 339 345 348 350 350 344 347 355 348 344 346 338
264 242 284 266 234 223 210 218 251 231 49 359 329 339 338 339 357 346 349 350 344 344 346 344 341 339 341 337 334 333 339 346 347 340 338 343 340 351 346 342 341 335 326 331
293 268 243 284 182 209 227 218 220 260 261 336 328 325 305 21 355 347 348 343 340 340 337 335 336 345 337 332 332 344 337 350 341 340 330 322 337 335 331 325 327 325 322 311
232 211 283 234 219 203 209 227 225 239 205 276 324 304 76 38 1 345 339 337 337 340 334 331 342 342 337 331 337 338 356 343 338 333 326 327 327 310 314 320 318 311 312 314
175 254 245 53 147 186 210 257 225 205 220 278 315 290 30 8 352 340 344 338 337 335 335 338 352 355 336 345 336 346 342 341 335 332 330 329 330 323 330 325 323 319 317 315
211 245 275 163 148 143 188 102 137 169 214 289 279 352 345 337 335 338 335 344 342 343 339 2 4 339 335 336 1 339 329 327 326 324 327 324 324 327 327 325 318 314 310 309
221 217 251 162 153 205 129 132 140 177 226 246 295 323 316 327 330 334 336 347 343 339 351 1 354 345 337 341 334 327 320 318 319 324 326 322 324 319 320 314 309 309 307 304
192 209 178 169 183 193 178 165 177 216 217 204 258 299 330 325 330 334 338 344 338 334 330 351 336 339 328 328 331 323 316 306 313 314 309 313 314 305 303 306 305 302 301 302
189 232 206 209 200 198 183 205 190 214 204 183 269 320 310 324 334 334 343 339 334 328 327 328 334 332 328 324 324 319 318 321 315 320 333 314 311 302 295 291 292 294 298 296
231 237 199 206 216 192 193 212 202 207 195 198 254 282 319 327 339 339 333 333 332 323 317 315 322 319 323 324 324 324 323 317 322 322 311 304 296 295 292 288 285 291 289 290
222 222 214 223 213 214 206 201 216 198 181 179 206 280 322 334 343 336 336 331 321 318 314 313 317 314 318 322 323 321 317 319 316 313 309 302 299 295 262 256 265 270 274 268
238 204 245 202 201 227 212 198 206 195 195 180 173 235 324 323 329 328 319 322 325 319 314 309 308 309 314 324 326 320 317 315 313 305 308 305 301 299 302 293 264 260 264 265
234 237 205 218 200 196 195 184 147 182 167 174 186 180 224 290 287 304 306 322 322 321 316 314 311 312 318 330 323 316 316 309 306 309 310 306 304 303 300 301 305 306 286 276
224 219 213 199 200 184 192 165 181 181 177 183 184 224 257 275 289 305 311 315 317 322 315 316 313 320 315 326 318 318 314 307 313 306 303 302 299 297 299 303 302 301 304 298
206 206 201 201 192 186 185 182 189 184 176 183 202 228 257 283 286 299 312 325 326 328 313 324 316 318 316 323 319 313 309 304 300 301 306 302 296 299 301 299 301 300 299 299
195 201 201 201 189 182 189 187 192 183 174 191 222 263 284 293 307 302 320 319 319 311 316 319 310 310 307 313 319 313 311 307 304 301 302 301 298 298 300 299 295 297 301 302
207 202 201 195 186 180 188 183 173 166 178 187 341 321 319 294 289 302 298 305 305 301 290 285 286 296 289 294 309 308 305 307 304 306 304 301 302 301 299 297 300 304 305 307
193 192 189 194 186 182 181 172 168 124 92 130 282 288 289 281 282 284 294 295 290 286 294 308 286 282 288 293 296 303 303 304 304 307 307 305 303 303 301 302 306 309 312 312
182 185 191 194 183 175 152 103 130 124 111 110 76 272 285 291 298 303 305 290 283 284 304 314 320 306 303 304 317 306 304 307 309 308 308 308 304 306 303 307 310 312 312 311
172 166 161 117 84 80 104 126 118 124 137 116 274 285 290 299 294 273 301 312 319 313 317 301 300 311 304 321 316 303 309 308 313 313 313 309 308 307 310 311 311 313 313 314
144 120 110 111 113 116 126 129 118 124 103 331 276 307 305 287 289 285 238 304 315 322 317 315 312 308 305 311 305 308 308 312 315 313 313 311 313 312 314 315 317 318 317 317
127 139 134 127 131 135 135 120 121 141 186 228 240 275 295 304 302 319 311 317 324 323 317 305 315 301 291 297 301 305 307 310 314 314 315 313 312 313 316 318 319 320 324 327
140 143 134 129 131 139 148 154 177 166 214 237 197 203 304 323 324 311 306 307 302 305 300 287 290 292 287 298 305 304 305 311 311 316 315 315 314 317 318 321 323 326 326 326
130 133 136 142 143 136 141 149 173 183 229 311 338 325 333 326 315 314 313 304 293 292 301 302 294 295 282 288 294 296 304 309 319 319 318 318 319 321 325 327 330 331 328 329
132 128 127 126 118 128 132 149 128 70 354 330 319 343 325 311 309 306 315 308 316 312 301 296 296 298 290 280 298 302 303 318 322 322 321 319 322 326 329 333 334 334 331 336
99 105 123 123 121 118 82 55 7 350 339 314 298 308 311 307 312 307 316 314 308 307 306 301 296 294 298 288 293 299 309 320 319 320 320 321 324 327 332 336 335 330 338 353